Retour au catalogue

COSMOS 2038

ActifMilitairePO
NORAD 20232·PAYLOAD·🇷🇺 Russia

Lancé Sep 14, 1989 depuis Plesetsk Cosmodrome

Loading…

Prochains Passages (prochaines 24 heures)

TLE

FraisSource: Space-Track

Époque: Sep 14, 2026, 13:55 UTC

1 20232U 89074A   26257.58018796  .00000033  00000-0  11784-3 0  9993
2 20232  82.5738 132.0302 0010473 214.0945 153.2946 12.65428579682774

Suivez COSMOS 2038 en temps réel avec AllMySat

Download on the App Store